Location: Shandelee
(41.8790°N, 74.8713°W)
Time: 12:28:30
(UTC+00:00)

Cosmos 1745 Rocket - Pass Details

Date: 29 October 2020
Orbit: 953 x 997 km, 83.0° (Epoch: 01 December)

Event Time Altitude Azimuth Distance (km) Brightness Sun altitude
Rises 23:22:25 0° 353° (N) 3,697 7.1 -16.4°
Reaches altitude 10° 23:24:56 10° 355° (N) 2,750 6.4 -16.9°
Maximum altitude 23:31:16 80° 82° (E) 1,010 3.9 -18.1°
Drops below altitude 10° 23:37:36 10° 170° (S) 2,753 6.3 -19.3°
Sets 23:40:08 0° 171° (S) 3,700 7.0 -19.7°
